Location: *
(51.4660°N, 0.3360°W)
Time: 11:15:32
(UTC+00:00)

Cosmos 1626 Rocket - Pass Details

Date: 19 September 2019
Orbit: 602 x 632 km, 82.5° (Epoch: 14 October)

Event Time Altitude Azimuth Distance (km) Brightness Sun altitude
Rises 20:46:26 0° 346° (NNW) 2,873 7.8 -23.9°
Reaches altitude 10° 20:48:42 10° 341° (NNW) 1,962 6.9 -24.2°
Maximum altitude 20:52:55 54° 265° (W) 741 4.1 -24.7°
Enters shadow 20:53:35 48° 230° (SW) 795 4.1 -24.8°
